Torna al catalogo

ARIANE 44LP R/B

AttivoHEO
NORAD 26096·ROCKET BODY·🇫🇷 France

Lanciato Feb 18, 2000 da Guiana Space Centre

Loading…

Prossimi Passaggi (prossime 24 ore)

TLE

AggiornatoSource: Space-Track

Epoca: Sep 14, 2026, 15:41 UTC

1 26096U 00012B   26257.65398232  .00000452  00000-0  61609-3 0  9992
2 26096   5.3218 348.3534 6948321  77.7337 346.4834  2.66657529235731

Traccia ARIANE 44LP R/B in tempo reale con AllMySat

Download on the App Store